FW3692 Weather Reports


time (UTC)temp
C
wind
direction
speed
KPH
gust
KPH
rain 1hr
cm
rain 24hr
cm
rain mn
cm
humidity
%
barometer
mb
20210927074204 20 219 0.0 0.0 0.00 0.51 0.00 87 1009.1
20210927073207 20 218 0.0 0.0 0.00 0.51 0.00 87 1009.0
20210927071203 20 222 4.8 11.3 0.00 0.51 0.00 87 1008.8
20210927070705 20 221 0.0 3.2 0.00 0.51 0.00 87 1008.8
20210927061708 20 222 1.6 9.7 0.00 0.51 0.58 88 1008.7
20210927061205 20 220 0.0 9.7 0.00 0.51 0.58 88 1008.7
20210927054228 20 220 0.0 0.0 0.00 0.51 0.58 88 1008.9
20210927053208 20 359 0.0 0.0 0.00 0.51 0.58 88 1008.9
20210927050705 20 221 0.0 0.0 0.00 0.51 0.58 88 1009.0
20210927050209 20 220 0.0 0.0 0.00 0.51 0.58 88 1009.0
20210927044205 20 220 0.0 0.0 0.00 0.51 0.58 87 1009.0
20210927043705 20 221 0.0 0.0 0.00 0.51 0.58 87 1009.0
20210927043207 20 219 0.0 0.0 0.00 0.51 0.58 87 1009.1
20210927041206 20 220 0.0 0.0 0.00 0.51 0.58 87 1008.9
20210927033705 20 219 0.0 0.0 0.00 0.51 0.58 87 1008.7
20210927024206 20 220 0.0 0.0 0.00 0.51 0.58 86 1008.5
20210927023706 20 220 0.0 0.0 0.00 0.51 0.58 86 1008.4
20210927021206 20 223 0.0 0.0 0.00 0.51 0.58 86 1007.9
20210927020705 20 220 0.0 0.0 0.00 0.51 0.58 86 1007.9
20210927020209 20 219 0.0 0.0 0.00 0.51 0.58 86 1008.0
20210927011708 20 220 0.0 1.6 0.00 0.51 0.58 86 1008.0
20210927011206 20 224 0.0 1.6 0.00 0.51 0.58 87 1007.9
20210927010706 20 217 0.0 1.6 0.03 0.51 0.58 87 1007.9
20210927003705 20 211 0.0 11.3 0.03 0.51 0.58 87 1007.8
20210927003208 20 210 0.0 11.3 0.03 0.51 0.58 87 1007.8
20210927000211 20 210 0.0 14.5 0.05 0.51 0.58 87 1007.9
20210926233208 20 206 1.6 12.9 0.03 0.48 0.56 87 1008.5
20210926231707 20 205 11.3 14.5 0.03 0.48 0.56 88 1008.7
20210926224707 20 237 8.0 14.5 0.03 0.46 0.53 88 1008.9
20210926223705 20 290 6.4 11.3 0.03 0.46 0.53 88 1008.9
20210926221707 20 359 3.2 9.7 0.05 0.46 0.53 89 1008.9
20210926221205 20 282 1.6 9.7 0.05 0.46 0.53 88 1009.0
20210926220705 20 273 0.0 8.0 0.05 0.46 0.53 88 1008.9
20210926220411 20 267 0.0 8.0 0.08 0.46 0.53 89 1009.0
20210926213208 20 270 0.0 9.7 0.10 0.43 0.51 88 1009.5
20210926211708 20 267 6.4 11.3 0.13 0.43 0.51 88 1009.7
20210926211205 20 284 6.4 9.7 0.15 0.43 0.51 88 1009.8
20210926210706 20 276 6.4 9.7 0.18 0.41 0.48 88 1009.9
20210926210208 20 359 1.6 9.7 0.23 0.41 0.48 88 1009.9
20210926204708 20 268 4.8 12.9 0.25 0.38 0.46 88 1010.1
20210926204209 20 276 6.4 11.3 0.28 0.38 0.46 88 1008.0
20210926201708 20 275 3.2 9.7 0.33 0.36 0.41 87 1010.6
20210926200207 20 359 0.0 9.7 0.33 0.33 0.38 86 1010.9
20210926194207 20 277 0.0 8.0 0.23 0.18 0.23 85 1011.3
20210926184708 21 333 0.0 4.8 0.05 0.03 0.05 80 1011.5
20210926181707 21 303 0.0 4.8 0.00 0.00 0.00 75 1011.1
20210926181206 22 319 1.6 4.8 0.00 0.00 0.00 75 1011.1
20210926180706 22 311 0.0 0.0 0.00 0.00 0.00 75 1011.1
20210926174708 22 359 0.0 8.0 0.00 0.00 0.00 76 1011.1
20210926174206 22 315 0.0 11.3 0.00 0.00 0.00 76 1011.1
20210926173707 22 316 1.6 11.3 0.00 0.00 0.00 76 1011.1
20210926171708 21 305 4.8 12.9 0.00 0.00 0.00 77 1010.8
20210926171205 21 318 1.6 12.9 0.00 0.00 0.00 77 1010.9
20210926164708 22 308 1.6 16.1 0.00 0.00 0.00 74 1010.7
20210926164205 22 321 9.7 19.3 0.00 0.00 0.00 72 1010.7
20210926161708 23 282 9.7 20.9 0.00 0.00 0.00 69 1010.5
20210926161205 23 313 9.7 20.9 0.00 0.00 0.00 68 1010.5
20210926154708 23 310 16.1 22.5 0.00 0.00 0.00 65 1010.2
20210926154205 23 318 12.9 19.3 0.00 0.00 0.00 63 1010.0
20210926153209 24 317 9.7 19.3 0.00 0.00 0.00 61 1007.5
20210926151708 24 314 9.7 16.1 0.00 0.00 0.00 60 1009.9
20210926150705 24 316 4.8 14.5 0.00 0.00 0.00 60 1009.8
20210926144707 24 297 6.4 12.9 0.00 0.00 0.00 59 1009.6
20210926144205 24 308 3.2 12.9 0.00 0.00 0.00 59 1009.6
20210926143705 24 310 3.2 11.3 0.00 0.00 0.00 59 1009.6
20210926141205 24 313 3.2 9.7 0.00 0.00 0.00 58 1009.5
20210926140706 24 315 4.8 16.1 0.00 0.00 0.00 58 1009.5
20210926140208 24 359 3.2 16.1 0.00 0.00 0.00 58 1009.4
20210926134205 24 302 0.0 12.9 0.00 0.00 0.00 58 1009.2
20210926133726 24 307 6.4 12.9 0.00 0.00 0.00 58 1009.2
20210926133229 24 280 4.8 12.9 0.00 0.00 0.00 57 1009.1
20210926130705 23 292 8.0 12.9 0.00 0.00 0.00 59 1008.8
20210926124205 23 313 0.0 4.8 0.00 0.00 0.00 60 1008.4
20210926121707 24 314 0.0 4.8 0.00 0.00 0.00 60 1008.2
20210926120705 24 318 0.0 4.8 0.00 0.00 0.00 59 1008.2
20210926120208 24 312 0.0 4.8 0.00 0.00 0.00 59 1008.2
20210926114208 24 315 1.6 11.3 0.00 0.00 0.00 58 1008.2
20210926110706 25 314 8.0 16.1 0.00 0.00 0.00 57 1008.3
20210926110207 25 308 9.7 16.1 0.00 0.00 0.00 57 1008.4
20210926104708 25 309 9.7 19.3 0.00 0.00 0.00 57 1008.3
20210926104205 25 321 9.7 19.3 0.00 0.00 0.00 57 1008.3
20210926100208 25 332 9.7 22.5 0.00 0.00 0.00 55 1008.4
20210926094708 25 341 14.5 29.0 0.00 0.00 0.00 54 1008.2
20210926094205 25 324 16.1 29.0 0.00 0.00 0.00 54 1008.2
20210926090706 26 327 16.1 32.2 0.00 0.00 0.00 52 1008.0
20210926090208 26 343 16.1 32.2 0.00 0.00 0.00 53 1008.1
20210926084206 26 307 14.5 25.7 0.00 0.00 0.00 54 1008.0
20210926083706 26 315 17.7 32.2 0.00 0.00 0.00 54 1008.1
20210926083210 26 298 14.5 32.2 0.00 0.00 0.00 53 1008.1
20210926080705 26 322 16.1 29.0 0.00 0.00 0.00 52 1008.0
20210926080207 26 321 9.7 29.0 0.00 0.00 0.00 51 1008.0